WESTFORD NEEDLES, 19946

Orbit data source: Space-Track

WESTFORD NEEDLES, 19946 is space debris in LEO originally from a launch on Thu, 09 May 1963 UTC launched from the Air Force Western Test Range (AFWTR). Debris objects in space refer to the collection of defunct objects orbiting the Earth. Examples of debris include non-operational satellites, rocket bodies, and fragments generated from explosions, collisions, or faulty payload assembly.

Loading next visibility...
Identifier
19946, 1963-014EU
Orbit
LEO
Country
Flag of USUS
Related business
Manufacturer
Unknown
Mission
Spacecraft
Bus & Motor
Unknown
Mass
Unknown
Launch date (UTC)
1963-05-09 (63 years ago)
Launch vehicle
Unknown
Launch site
Air Force Western Test Range (AFWTR)
Object type
Payload
Rocket body
Debris
Shape & HBR
Unknown shape, 0.2 m
Radar Cross Section
Medium (>0.1 m² and <1 m²)

Expand to show TLE details & history
Last TLE update: 4 days ago

TLE from 4 days ago
0 WESTFORD NEEDLES
1 19946U 63014EU  26096.64037280  .00000171  00000-0  69705-1 0  9993
2 19946  87.1625 329.6680 0416930 359.2310  22.5694  8.68555848182365
Epoch: 2026-04-06T15:22Z
TLE epoch observation values (Epoch: 2026-04-06T15:22:08.209Z)
Latitude
23.71151°
Longitude
-94.5525°
Altitude
3,238.945 km
Speed
6.562 km/s
True Right ascension
22h 03m 38s
True Declination
23° 37' 04"
Sunlit
Object was in daylight at epoch
Visualization orbit readout
Latitude
Unknown
Longitude
Unknown
Altitude
Unknown
Speed
Unknown
Apparent Right ascension
Unknown
Apparent Declination
Unknown
Sunlit
N/A
Visualization observer readout
Local Sidereal Time
01:44:07
Azimuth
Unknown
Elevation
Unknown
Doppler factor
Unknown
Orbital elements
Apogee altitude
4,033.399 km
Perigee altitude
3,199.97 km
Semi-major axis
9,994.822 km
Eccentricity
0.04169
Inclination
87.1625°
RAAN
329.668°
Arg. of periapsis
359.231°
True anomaly
24.49522°
Mean anomaly
22.5694°
Eccentric anomaly
23.52282°
Mean motion
2.1721 °/min
Orbital period
165.74 mins
BSTAR
0.069705
Loading maneuver chart data...
Computing Atmospheric mass density...

Documentation

Showing up to 5 results
|